Flag for United Kingdom Weather past 2 weeks in Glasgow, Scotland, United Kingdom

Now
61 °F

Passing clouds.


Feels Like: 61 °F
Forecast: 51 / 61 °F
Wind: 16 mph from Southwest

Location: Glasgow Airport

Current Time: Aug 29, 2015 at 6:04:19 PM

Latest Report: Aug 29, 2015 at 5:20 PM


Visibility: N/A

Pressure: 29.95 "Hg

Humidity: 72%

Dew point: 52 °F

Location of GlasgowLocation

Historic Weather in Glasgow — Graph

°F

Glasgow temperature yesterday

Maximum temperature yesterday: 64 °F (at 3:50 PM)
Minimum temperature yesterday: 50 °F (at 12:50 AM)
Average temperature yesterday: 58 °F

Past Weeks' High & Low Weather Summary

 TemperatureHumidityPressure
High77 °F (Aug 23, 2:20 PM)100% (Aug 17, 2:50 AM)30.15 "Hg (Aug 17, 2:50 AM)
Low45 °F (Aug 18, 4:20 AM)44% (Aug 23, 3:20 PM)29.27 "Hg (Aug 26, 10:50 AM)
Average59 °F80%29.77 "Hg
* Reported Aug 14 4:20 PM — Aug 29 4:50 PM, Glasgow, Weather by CustomWeather, © 2015

Note: Actual official high and low records may vary slightly from our data, if they occured in-between our weather recording intervals... More about our weather records

Advertising

Glasgow weather history for previous 24 hours

 ConditionsComfort  
Time TempWeatherWind HumidityBarometerVisibility
4:50 PM
Sat, Aug 29
63 °FScattered clouds.21 mph68%29.92 "HgN/A
4:20 PM63 °FPassing clouds.16 mph73%29.95 "HgN/A
3:50 PM63 °FPassing clouds.18 mph73%29.95 "HgN/A
3:20 PM64 °FScattered clouds.20 mph68%29.95 "HgN/A
2:50 PM63 °FScattered clouds.23 mph73%29.92 "HgN/A
2:20 PM61 °FScattered clouds.21 mph77%29.92 "HgN/A
1:50 PM63 °FScattered clouds.21 mph73%29.92 "HgN/A
1:20 PM63 °FPartly sunny.21 mph73%29.92 "HgN/A
12:50 PM61 °FScattered clouds.20 mph77%29.92 "HgN/A
12:20 PM61 °FScattered clouds.17 mph77%29.92 "HgN/A
11:50 AM59 °FBroken clouds.17 mph82%29.92 "HgN/A
10:50 AM57 °FBroken clouds.16 mph88%29.92 "HgN/A
10:20 AM59 °FBroken clouds.15 mph82%29.92 "HgN/A
9:50 AM59 °FScattered clouds.16 mph82%29.92 "HgN/A
9:20 AM59 °FBroken clouds.15 mph82%29.89 "HgN/A
8:50 AM59 °FBroken clouds.16 mph82%29.89 "HgN/A
8:20 AM57 °FBroken clouds.15 mph88%29.89 "HgN/A
7:50 AM57 °FPartly sunny.14 mph82%29.89 "HgN/A
6:50 AM57 °FPartly cloudy.15 mph82%29.86 "HgN/A
6:20 AM57 °FPassing clouds.15 mph82%29.86 "HgN/A
5:50 AM55 °FPassing clouds.15 mph88%29.86 "HgN/A
5:20 AM57 °FPassing clouds.14 mph82%29.86 "HgN/A
4:50 AM57 °FPassing clouds.16 mph82%29.86 "HgN/A
4:20 AM57 °FPassing clouds.15 mph82%29.86 "HgN/A
3:50 AM57 °FPassing clouds.17 mph82%29.86 "HgN/A
3:20 AM57 °FPassing clouds.17 mph82%29.86 "HgN/A
2:50 AM57 °FPartly cloudy.14 mph82%29.86 "HgN/A
2:20 AM57 °FPassing clouds.16 mph82%29.86 "HgN/A
1:50 AM57 °FPassing clouds.17 mph82%29.83 "HgN/A
1:20 AM57 °FPassing clouds.16 mph88%29.83 "HgN/A
12:50 AM57 °FPassing clouds.18 mph88%29.83 "HgN/A
12:20 AM57 °FPassing clouds.17 mph88%29.83 "HgN/A
11:50 PM
Fri, Aug 28
57 °FPassing clouds.17 mph88%29.83 "HgN/A
11:20 PM57 °FPassing clouds.16 mph88%29.80 "HgN/A
10:50 PM57 °FScattered showers. Passing clouds.15 mph88%29.80 "HgN/A
10:20 PM59 °FPassing clouds.12 mph82%29.80 "HgN/A
9:50 PM57 °FPassing clouds.13 mph88%29.80 "HgN/A
9:20 PM59 °FLight rain. Partly sunny.9 mph82%29.80 "HgN/A
8:50 PM59 °FLight rain. Partly sunny.10 mph82%29.80 "HgN/A
8:20 PM59 °FLight rain. Scattered clouds.13 mph77%29.77 "HgN/A
7:50 PM59 °FScattered clouds.10 mph77%29.77 "HgN/A
7:20 PM59 °FPartly sunny.10 mph77%29.80 "HgN/A
6:50 PM59 °FBroken clouds.12 mph77%29.80 "HgN/A
6:20 PM59 °FBroken clouds.12 mph77%29.80 "HgN/A
Weather by CustomWeather, © 2015

See weather overviewHow to use our weather pages